Home   Weather   Sendai   Past weeks
Flag for Japan

Past Weather in Sendai, Japan — Yesterday and Last 2 Weeks

Now
36 °F

Snow flurries. Passing clouds.


Feels Like: 30 °F
Forecast: 38 / 30 °F
Wind: 7 mph from West

Location: Sendai Airport

Current Time: Jan 17, 2019 at 10:11:31 pm

Latest Report: Jan 17, 2019 at 9:00 pm


Visibility: N/A

Pressure: 29.74 "Hg

Humidity: 75%

Dew Point: 28 °F

Location of SendaiLocation

Past Weather in Sendai — Graph

°F

Sendai Temperature Yesterday

Maximum temperature yesterday: 43 °F (at 11:17 am)
Minimum temperature yesterday: 34 °F (at 9:00 pm)
Average temperature yesterday: 39 °F

High & Low Weather Summary for the Past Weeks

 TemperatureHumidityPressure
High46 °F (Jan 4, 12:00 pm)93% (Jan 9, 7:18 am)30.33 "Hg (Jan 9, 7:18 am)
Low23 °F (Jan 12, 7:00 am)31% (Jan 11, 1:00 pm)29.68 "Hg (Jan 17, 12:39 pm)
Average38 °F57%30.03 "Hg
* Reported Jan 2 9:00 pm — Jan 17 9:00 pm, Sendai. Weather by CustomWeather, © 2019

Note: Actual official high and low records may vary slightly from our data, if they occured in-between our weather recording intervals... More about our weather records

Advertising

Sendai Weather History for the Previous 24 Hours

Scroll right to see more
 ConditionsComfort  
Time TempWeatherWind HumidityBarometerVisibility
9:00 pm
Thu, Jan 17
36 °FSnow flurries. Passing clouds.7 mph75%29.74 "HgN/A
8:00 pm37 °FScattered showers. Passing clouds.10 mph70%29.74 "HgN/A
7:00 pm37 °FPassing clouds.6 mph65%29.74 "HgN/A
6:00 pm37 °FPartly cloudy.5 mph65%29.71 "HgN/A
5:00 pm37 °FPartly cloudy.9 mph60%29.71 "HgN/A
4:00 pm41 °FPartly sunny.17 mph53%29.71 "HgN/A
3:00 pm41 °FScattered showers. Partly sunny.16 mph53%29.71 "HgN/A
2:00 pm43 °FBroken clouds.15 mph57%29.68 "HgN/A
1:25 pm43 °FSprinkles. Broken clouds.9 mph61%29.68 "HgN/A
1:00 pm46 °FBroken clouds.18 mph46%29.68 "HgN/A
12:39 pm46 °FBroken clouds.6 mph46%29.68 "HgN/A
12:00 pm46 °FPartly sunny.15 mph50%29.71 "HgN/A
11:00 am46 °FBroken clouds.18 mph46%29.74 "HgN/A
10:00 am45 °FScattered clouds.16 mph53%29.74 "HgN/A
9:00 am39 °FScattered clouds.10 mph52%29.77 "HgN/A
8:00 am37 °FBroken clouds.13 mph56%29.77 "HgN/A
7:00 am34 °FPassing clouds.13 mph65%29.80 "HgN/A
6:00 am27 °FPassing clouds.5 mph74%29.80 "HgN/A
5:30 am25 °FPassing clouds.3 mph74%29.80 "HgN/A
Weather by CustomWeather, © 2019

See weather overview